| time (UTC) | temp F | wind direction | speed knots | gust knots | rain 1hr in | rain 24hr in | rain mn in | humidity % | barometer mb |
| 20260504030623 | 37 | 215 | 0.0 | 0.0 | 0.00 | 0.00 | 0.00 | 84 | 1012.8 |
| 20260504030119 | 37 | 176 | 0.9 | 0.9 | 0.00 | 0.00 | 0.00 | 84 | 1012.8 |
| 20260504025616 | 38 | 299 | 0.0 | 0.0 | 0.00 | 0.00 | 0.00 | 83 | 1012.7 |
| 20260504025113 | 38 | 258 | 0.0 | 0.9 | 0.00 | 0.00 | 0.00 | 83 | 1012.9 |
| 20260504024611 | 38 | 272 | 0.0 | 0.0 | 0.00 | 0.00 | 0.00 | 83 | 1012.8 |
| 20260504024107 | 39 | 326 | 0.9 | 0.9 | 0.00 | 0.00 | 0.00 | 81 | 1012.8 |
| 20260504023603 | 39 | 337 | 1.7 | 1.7 | 0.00 | 0.00 | 0.00 | 79 | 1012.6 |
| 20260504023059 | 39 | 279 | 0.0 | 0.9 | 0.00 | 0.00 | 0.00 | 79 | 1012.6 |
| 20260504022556 | 39 | 261 | 0.0 | 0.0 | 0.00 | 0.00 | 0.00 | 79 | 1012.9 |
| 20260504022052 | 40 | 278 | 0.9 | 0.9 | 0.00 | 0.00 | 0.00 | 77 | 1012.6 |
| 20260504021550 | 40 | 318 | 0.9 | 0.9 | 0.00 | 0.00 | 0.00 | 78 | 1012.7 |
| 20260504021046 | 40 | 35 | 0.9 | 0.9 | 0.00 | 0.00 | 0.00 | 77 | 1012.8 |
| 20260504020543 | 41 | 29 | 0.0 | 0.0 | 0.00 | 0.00 | 0.00 | 75 | 1012.4 |
| 20260504020040 | 41 | 294 | 0.9 | 0.9 | 0.00 | 0.00 | 0.00 | 75 | 1012.6 |
| 20260504015536 | 41 | 1 | 0.0 | 0.9 | 0.00 | 0.00 | 0.00 | 74 | 1012.5 |
| 20260504015032 | 42 | 22 | 0.0 | 0.0 | 0.00 | 0.00 | 0.00 | 75 | 1012.7 |
| 20260504014528 | 42 | 345 | 0.0 | 0.0 | 0.00 | 0.00 | 0.00 | 73 | 1012.5 |
| 20260504014026 | 42 | 333 | 0.9 | 0.9 | 0.00 | 0.00 | 0.00 | 73 | 1012.3 |
| 20260504013524 | 42 | 343 | 0.9 | 1.7 | 0.00 | 0.00 | 0.00 | 72 | 1012.5 |
| 20260504013020 | 42 | 303 | 0.0 | 0.0 | 0.00 | 0.00 | 0.00 | 69 | 1012.3 |
| 20260504012518 | 43 | 325 | 0.9 | 0.9 | 0.00 | 0.00 | 0.00 | 68 | 1012.3 |
| 20260504012016 | 44 | 326 | 0.9 | 0.9 | 0.00 | 0.00 | 0.00 | 69 | 1012.3 |
| 20260504011512 | 43 | 319 | 0.9 | 0.9 | 0.00 | 0.00 | 0.00 | 68 | 1012.4 |
| 20260504011008 | 44 | 328 | 1.7 | 1.7 | 0.00 | 0.00 | 0.00 | 68 | 1012.2 |
| 20260504010504 | 45 | 302 | 0.9 | 0.9 | 0.00 | 0.00 | 0.00 | 64 | 1012.1 |
| 20260504010000 | 46 | 318 | 0.9 | 1.7 | 0.00 | 0.00 | 0.00 | 63 | 1012.1 |
| 20260504005457 | 46 | 254 | 0.0 | 0.9 | 0.00 | 0.00 | 0.00 | 63 | 1012.2 |
| 20260504004954 | 47 | 297 | 0.9 | 0.9 | 0.00 | 0.00 | 0.00 | 62 | 1012.3 |
| 20260504004452 | 48 | 341 | 0.9 | 1.7 | 0.00 | 0.00 | 0.00 | 57 | 1012.1 |
| 20260504003949 | 49 | 55 | 0.9 | 0.9 | 0.00 | 0.00 | 0.00 | 52 | 1012.0 |
| 20260504003445 | 50 | 122 | 0.0 | 0.9 | 0.00 | 0.00 | 0.00 | 56 | 1012.3 |
| 20260504002942 | 51 | 179 | 2.6 | 2.6 | 0.00 | 0.00 | 0.00 | 45 | 1012.1 |
| 20260504002439 | 52 | 176 | 0.9 | 1.7 | 0.00 | 0.00 | 0.00 | 45 | 1012.1 |
| 20260504001936 | 52 | 125 | 5.2 | 7.0 | 0.00 | 0.00 | 0.00 | 44 | 1012.1 |
| 20260504001433 | 52 | 113 | 3.5 | 5.2 | 0.00 | 0.00 | 0.00 | 44 | 1012.0 |
| 20260504000930 | 53 | 131 | 4.3 | 6.1 | 0.00 | 0.00 | 0.00 | 44 | 1012.2 |
| 20260504000427 | 53 | 189 | 2.6 | 2.6 | 0.00 | 0.00 | 0.00 | 43 | 1012.2 |
| 20260503235924 | 53 | 120 | 1.7 | 5.2 | 0.00 | 0.00 | 0.00 | 44 | 1012.1 |
| 20260503235422 | 53 | 173 | 6.1 | 7.8 | 0.00 | 0.00 | 0.00 | 45 | 1011.9 |
| 20260503234919 | 53 | 184 | 4.3 | 6.1 | 0.00 | 0.00 | 0.00 | 42 | 1011.9 |
| 20260503234417 | 53 | 197 | 2.6 | 4.3 | 0.00 | 0.00 | 0.00 | 42 | 1012.1 |
| 20260503233914 | 53 | 356 | 1.7 | 1.7 | 0.00 | 0.00 | 0.00 | 44 | 1012.2 |
| 20260503233411 | 53 | 212 | 5.2 | 6.1 | 0.00 | 0.00 | 0.00 | 42 | 1012.2 |
| 20260503232907 | 54 | 199 | 4.3 | 6.1 | 0.00 | 0.00 | 0.00 | 42 | 1012.0 |
| 20260503232405 | 53 | 57 | 7.0 | 7.8 | 0.00 | 0.00 | 0.00 | 42 | 1011.9 |
| 20260503231902 | 53 | 221 | 4.3 | 5.2 | 0.00 | 0.00 | 0.00 | 42 | 1012.1 |
| 20260503231359 | 53 | 102 | 1.7 | 2.6 | 0.00 | 0.00 | 0.00 | 43 | 1012.2 |
| 20260503230855 | 53 | 60 | 2.6 | 2.6 | 0.00 | 0.00 | 0.00 | 43 | 1012.0 |
| 20260503230352 | 53 | 154 | 3.5 | 5.2 | 0.00 | 0.00 | 0.00 | 43 | 1011.9 |
| 20260503225850 | 54 | 34 | 2.6 | 2.6 | 0.00 | 0.00 | 0.00 | 42 | 1012.1 |
| 20260503225345 | 54 | 217 | 6.1 | 8.7 | 0.00 | 0.00 | 0.00 | 42 | 1012.2 |
| 20260503224842 | 54 | 287 | 0.0 | 0.9 | 0.00 | 0.00 | 0.00 | 44 | 1012.2 |
| 20260503224339 | 55 | 197 | 0.9 | 1.7 | 0.00 | 0.00 | 0.00 | 42 | 1011.9 |
| 20260503223837 | 54 | 353 | 1.7 | 2.6 | 0.00 | 0.00 | 0.00 | 41 | 1012.0 |
| 20260503223334 | 55 | 87 | 2.6 | 4.3 | 0.00 | 0.00 | 0.00 | 41 | 1011.9 |
| 20260503222830 | 55 | 178 | 0.9 | 0.9 | 0.00 | 0.00 | 0.00 | 41 | 1011.9 |
| 20260503222329 | 55 | 346 | 3.5 | 5.2 | 0.00 | 0.00 | 0.00 | 40 | 1011.9 |
| 20260503221826 | 55 | 293 | 1.7 | 1.7 | 0.00 | 0.00 | 0.00 | 40 | 1012.0 |
| 20260503221325 | 55 | 161 | 0.9 | 0.9 | 0.00 | 0.00 | 0.00 | 40 | 1012.2 |
| 20260503220820 | 55 | 232 | 3.5 | 6.1 | 0.00 | 0.00 | 0.00 | 40 | 1012.1 |
| 20260503220318 | 54 | 188 | 5.2 | 6.1 | 0.00 | 0.00 | 0.00 | 41 | 1012.0 |
| 20260503215814 | 54 | 288 | 3.5 | 7.0 | 0.00 | 0.00 | 0.00 | 42 | 1012.1 |
| 20260503215312 | 54 | 169 | 5.2 | 11.3 | 0.00 | 0.00 | 0.00 | 41 | 1012.1 |
| 20260503214809 | 55 | 147 | 4.3 | 5.2 | 0.00 | 0.00 | 0.00 | 40 | 1012.0 |
| 20260503214306 | 56 | 199 | 8.7 | 12.2 | 0.00 | 0.00 | 0.00 | 41 | 1011.9 |
| 20260503213804 | 57 | 187 | 1.7 | 1.7 | 0.00 | 0.00 | 0.00 | 40 | 1012.1 |
| 20260503213301 | 55 | 2 | 2.6 | 2.6 | 0.00 | 0.00 | 0.00 | 39 | 1012.0 |
| 20260503212758 | 54 | 172 | 2.6 | 2.6 | 0.00 | 0.00 | 0.00 | 40 | 1012.0 |
| 20260503212256 | 55 | 165 | 1.7 | 1.7 | 0.00 | 0.00 | 0.00 | 39 | 1012.0 |
| 20260503211753 | 55 | 348 | 2.6 | 2.6 | 0.00 | 0.00 | 0.00 | 42 | 1012.1 |
| 20260503211249 | 54 | 330 | 4.3 | 6.1 | 0.00 | 0.00 | 0.00 | 40 | 1012.1 |
| 20260503210744 | 55 | 140 | 5.2 | 9.6 | 0.00 | 0.00 | 0.00 | 43 | 1011.9 |
| 20260503210242 | 55 | 189 | 1.7 | 2.6 | 0.00 | 0.00 | 0.00 | 40 | 1011.9 |
| 20260503205742 | 55 | 157 | 2.6 | 2.6 | 0.00 | 0.00 | 0.00 | 40 | 1011.9 |
| 20260503205239 | 54 | 198 | 2.6 | 4.3 | 0.00 | 0.00 | 0.00 | 42 | 1012.0 |
| 20260503204735 | 54 | 213 | 2.6 | 4.3 | 0.00 | 0.00 | 0.00 | 40 | 1012.2 |
| 20260503204233 | 54 | 275 | 5.2 | 7.0 | 0.00 | 0.00 | 0.00 | 39 | 1012.2 |
| 20260503203730 | 54 | 136 | 2.6 | 2.6 | 0.00 | 0.00 | 0.00 | 42 | 1012.0 |
| 20260503203228 | 53 | 351 | 1.7 | 2.6 | 0.00 | 0.00 | 0.00 | 42 | 1012.3 |
| 20260503202725 | 54 | 151 | 2.6 | 4.3 | 0.00 | 0.00 | 0.00 | 41 | 1012.3 |
| 20260503202223 | 54 | 234 | 7.8 | 8.7 | 0.00 | 0.00 | 0.00 | 40 | 1012.2 |
| 20260503201720 | 53 | 140 | 2.6 | 4.3 | 0.00 | 0.00 | 0.00 | 41 | 1012.4 |
| 20260503201218 | 54 | 141 | 2.6 | 4.3 | 0.00 | 0.00 | 0.00 | 40 | 1012.4 |
| 20260503200714 | 54 | 16 | 2.6 | 4.3 | 0.00 | 0.00 | 0.00 | 40 | 1012.2 |
| 20260503200210 | 54 | 36 | 2.6 | 2.6 | 0.00 | 0.00 | 0.00 | 40 | 1012.4 |
| 20260503195707 | 54 | 226 | 2.6 | 4.3 | 0.00 | 0.00 | 0.00 | 41 | 1012.4 |
| 20260503195204 | 54 | 338 | 1.7 | 5.2 | 0.00 | 0.00 | 0.00 | 39 | 1012.6 |
| 20260503194701 | 54 | 14 | 0.9 | 1.7 | 0.00 | 0.00 | 0.00 | 41 | 1012.5 |
| 20260503194156 | 54 | 174 | 4.3 | 6.1 | 0.00 | 0.00 | 0.00 | 40 | 1012.3 |
| 20260503193653 | 54 | 144 | 1.7 | 4.3 | 0.00 | 0.00 | 0.00 | 40 | 1012.8 |
| 20260503193149 | 54 | 343 | 2.6 | 5.2 | 0.00 | 0.00 | 0.00 | 40 | 1012.7 |
| 20260503192645 | 55 | 86 | 4.3 | 6.1 | 0.00 | 0.00 | 0.00 | 39 | 1012.8 |
| 20260503192141 | 55 | 186 | 3.5 | 4.3 | 0.00 | 0.00 | 0.00 | 41 | 1013.1 |
| 20260503191638 | 54 | 184 | 6.1 | 7.0 | 0.00 | 0.00 | 0.00 | 40 | 1013.1 |
| 20260503191135 | 54 | 111 | 2.6 | 4.3 | 0.00 | 0.00 | 0.00 | 41 | 1013.2 |
| 20260503190631 | 55 | 195 | 5.2 | 7.0 | 0.00 | 0.00 | 0.00 | 44 | 1013.1 |
| 20260503190128 | 55 | 183 | 2.6 | 6.1 | 0.00 | 0.00 | 0.00 | 40 | 1013.2 |
| 20260503185625 | 54 | 176 | 2.6 | 4.3 | 0.00 | 0.00 | 0.00 | 42 | 1013.3 |
| 20260503185120 | 54 | 82 | 2.6 | 2.6 | 0.00 | 0.00 | 0.00 | 42 | 1013.2 |
| 20260503184615 | 53 | 87 | 4.3 | 6.1 | 0.00 | 0.00 | 0.00 | 40 | 1013.3 |
| 20260503184112 | 52 | 186 | 7.0 | 8.7 | 0.00 | 0.00 | 0.00 | 41 | 1013.5 |
| 20260503183609 | 53 | 143 | 2.6 | 4.3 | 0.00 | 0.00 | 0.00 | 40 | 1013.5 |
| 20260503183106 | 53 | 109 | 2.6 | 2.6 | 0.00 | 0.00 | 0.00 | 44 | 1013.5 |
| 20260503182605 | 53 | 300 | 7.0 | 7.0 | 0.00 | 0.00 | 0.00 | 41 | 1013.7 |
| 20260503182102 | 52 | 113 | 2.6 | 2.6 | 0.00 | 0.00 | 0.00 | 42 | 1013.6 |
| 20260503181559 | 52 | 357 | 7.8 | 8.7 | 0.00 | 0.00 | 0.00 | 40 | 1013.8 |
| 20260503181055 | 52 | 32 | 2.6 | 4.3 | 0.00 | 0.00 | 0.00 | 41 | 1013.7 |
| 20260503180553 | 52 | 354 | 4.3 | 5.2 | 0.00 | 0.00 | 0.00 | 40 | 1013.5 |
| 20260503180050 | 52 | 164 | 0.9 | 1.7 | 0.00 | 0.00 | 0.00 | 40 | 1013.7 |
| 20260503175547 | 53 | 20 | 6.1 | 7.8 | 0.00 | 0.00 | 0.00 | 39 | 1013.7 |
| 20260503175044 | 54 | 4 | 1.7 | 2.6 | 0.00 | 0.00 | 0.00 | 39 | 1013.8 |
| 20260503174541 | 52 | 189 | 3.5 | 4.3 | 0.00 | 0.00 | 0.00 | 39 | 1013.7 |
| 20260503174038 | 53 | 214 | 9.6 | 13.9 | 0.00 | 0.00 | 0.00 | 42 | 1013.9 |
| 20260503173533 | 52 | 137 | 0.9 | 1.7 | 0.00 | 0.00 | 0.00 | 43 | 1013.9 |
| 20260503173029 | 53 | 18 | 4.3 | 6.1 | 0.00 | 0.00 | 0.00 | 39 | 1014.1 |
| 20260503172521 | 54 | 180 | 4.3 | 6.1 | 0.00 | 0.00 | 0.00 | 38 | 1013.9 |
| 20260503172018 | 51 | 289 | 5.2 | 7.8 | 0.00 | 0.00 | 0.00 | 41 | 1013.8 |
| 20260503171515 | 51 | 282 | 6.1 | 7.0 | 0.00 | 0.00 | 0.00 | 39 | 1013.9 |
| 20260503171012 | 52 | 353 | 7.0 | 7.8 | 0.00 | 0.00 | 0.00 | 43 | 1013.9 |
| 20260503170508 | 50 | 189 | 5.2 | 6.1 | 0.00 | 0.00 | 0.00 | 42 | 1014.0 |
| 20260503150900 | 48 | 299 | 4.3 | 6.1 | 0.00 | 0.00 | 0.00 | 46 | 1014.8 |
| 20260503150357 | 47 | 271 | 2.6 | 4.3 | 0.00 | 0.00 | 0.00 | 49 | 1014.9 |
| 20260503131250 | 42 | 111 | 1.7 | 1.7 | 0.00 | 0.00 | 0.00 | 64 | 1015.3 |
| 20260503130748 | 42 | 353 | 4.3 | 6.1 | 0.00 | 0.00 | 0.00 | 66 | 1015.5 |
| 20260503130246 | 42 | 305 | 2.6 | 4.3 | 0.00 | 0.00 | 0.00 | 67 | 1015.6 |
| 20260503120211 | 32 | 181 | 1.7 | 1.7 | 0.00 | 0.00 | 0.00 | 90 | 1015.6 |
| 20260503110638 | 26 | 205 | 0.0 | 0.0 | 0.00 | 0.00 | 0.00 | 98 | 1015.3 |
| 20260503110136 | 26 | 207 | 0.0 | 0.0 | 0.00 | 0.00 | 0.00 | 98 | 1015.0 |
| 20260503081446 | 27 | 251 | 0.0 | 0.0 | 0.00 | 0.00 | 0.00 | 95 | 1014.4 |
| 20260503080943 | 28 | 245 | 0.0 | 0.0 | 0.00 | 0.00 | 0.00 | 95 | 1014.5 |
| 20260503080439 | 28 | 276 | 0.0 | 0.9 | 0.00 | 0.00 | 0.00 | 95 | 1014.5 |
| 20260503072916 | 29 | 269 | 0.0 | 0.9 | 0.00 | 0.00 | 0.00 | 93 | 1014.3 |
| 20260503072413 | 29 | 285 | 0.0 | 0.9 | 0.00 | 0.00 | 0.00 | 93 | 1014.0 |
| 20260503071910 | 29 | 330 | 0.9 | 0.9 | 0.00 | 0.00 | 0.00 | 92 | 1014.2 |
| 20260503071407 | 29 | 264 | 0.0 | 0.0 | 0.00 | 0.00 | 0.00 | 92 | 1013.9 |
| 20260503070903 | 30 | 267 | 0.9 | 0.9 | 0.00 | 0.00 | 0.00 | 91 | 1013.9 |
| 20260503070400 | 30 | 24 | 0.9 | 0.9 | 0.00 | 0.00 | 0.00 | 90 | 1014.0 |
| 20260503060326 | 32 | 242 | 0.0 | 0.0 | 0.00 | 0.00 | 0.00 | 85 | 1014.2 |
| 20260503054814 | 32 | 222 | 0.0 | 0.0 | 0.00 | 0.00 | 0.00 | 84 | 1014.3 |
| 20260503054310 | 33 | 221 | 0.0 | 0.0 | 0.00 | 0.00 | 0.00 | 83 | 1014.3 |
| 20260503053808 | 33 | 239 | 0.0 | 0.0 | 0.00 | 0.00 | 0.00 | 83 | 1014.3 |
| 20260503053306 | 33 | 200 | 0.0 | 0.0 | 0.00 | 0.00 | 0.00 | 83 | 1014.2 |
| 20260503052802 | 32 | 202 | 0.0 | 0.0 | 0.00 | 0.00 | 0.00 | 82 | 1014.3 |
| 20260503052259 | 32 | 220 | 0.0 | 0.0 | 0.00 | 0.00 | 0.00 | 81 | 1014.2 |
| 20260503051755 | 33 | 220 | 0.0 | 0.0 | 0.00 | 0.00 | 0.00 | 80 | 1014.4 |
| 20260503051252 | 33 | 238 | 0.0 | 0.0 | 0.00 | 0.00 | 0.00 | 79 | 1014.5 |
| 20260503050748 | 33 | 261 | 0.0 | 0.0 | 0.00 | 0.00 | 0.00 | 78 | 1014.4 |
| 20260503050245 | 33 | 234 | 0.0 | 0.0 | 0.00 | 0.00 | 0.00 | 78 | 1014.6 |
| 20260503045742 | 34 | 242 | 0.0 | 0.0 | 0.00 | 0.00 | 0.00 | 77 | 1014.5 |
| 20260503045234 | 34 | 300 | 0.9 | 0.9 | 0.00 | 0.00 | 0.00 | 77 | 1014.7 |
| 20260503044730 | 34 | 297 | 0.9 | 0.9 | 0.00 | 0.00 | 0.00 | 77 | 1014.8 |
| 20260503044227 | 34 | 231 | 0.0 | 0.0 | 0.00 | 0.00 | 0.00 | 76 | 1014.7 |
| 20260503043724 | 34 | 241 | 0.0 | 0.0 | 0.00 | 0.00 | 0.00 | 76 | 1014.8 |
| 20260503043222 | 34 | 201 | 0.0 | 0.0 | 0.00 | 0.00 | 0.00 | 76 | 1014.8 |
| 20260503042717 | 34 | 236 | 0.0 | 0.0 | 0.00 | 0.00 | 0.00 | 75 | 1014.7 |
| 20260503042214 | 35 | 229 | 0.0 | 0.0 | 0.00 | 0.00 | 0.00 | 75 | 1014.6 |
| 20260503041710 | 35 | 7 | 0.9 | 0.9 | 0.00 | 0.00 | 0.00 | 74 | 1014.7 |
| 20260503041208 | 35 | 251 | 0.0 | 0.0 | 0.00 | 0.00 | 0.00 | 75 | 1014.9 |
| 20260503040705 | 35 | 247 | 0.0 | 0.9 | 0.00 | 0.00 | 0.00 | 76 | 1014.8 |
| 20260503040203 | 35 | 273 | 0.9 | 0.9 | 0.00 | 0.00 | 0.00 | 75 | 1014.7 |
| 20260503035659 | 35 | 349 | 0.9 | 0.9 | 0.00 | 0.00 | 0.00 | 75 | 1014.7 |
| 20260503035157 | 34 | 214 | 0.0 | 0.9 | 0.00 | 0.00 | 0.00 | 77 | 1014.7 |
| 20260503034654 | 34 | 228 | 0.0 | 0.0 | 0.00 | 0.00 | 0.00 | 77 | 1014.9 |
| 20260503034151 | 34 | 187 | 0.0 | 0.0 | 0.00 | 0.00 | 0.00 | 77 | 1014.8 |
| 20260503033648 | 34 | 202 | 0.0 | 0.0 | 0.00 | 0.00 | 0.00 | 77 | 1014.8 |
| 20260503033146 | 34 | 250 | 0.0 | 0.9 | 0.00 | 0.00 | 0.00 | 78 | 1014.8 |
| 20260503032644 | 34 | 335 | 0.9 | 1.7 | 0.00 | 0.00 | 0.00 | 76 | 1014.9 |
| 20260503032143 | 34 | 240 | 0.0 | 0.0 | 0.00 | 0.00 | 0.00 | 79 | 1014.9 |
| 20260503031639 | 34 | 160 | 0.0 | 0.9 | 0.00 | 0.00 | 0.00 | 77 | 1014.7 |
| 20260503031137 | 34 | 206 | 0.0 | 0.0 | 0.00 | 0.00 | 0.00 | 76 | 1014.9 |